TimeAKST,TemperatureF,Dew PointF,Humidity,Sea Level PressureIn,VisibilityMPH,Wind Direction,Wind SpeedMPH,Gust SpeedMPH,PrecipitationIn,Events,Conditions,WindDirDegrees,DateUTC
12:37 AM,28.4,26.6,93,29.83,10.0,West,12.7,19.6,0.00,,Overcast,280,2012-12-10 09:37:00
12:54 AM,26.1,24.1,92,29.84,10.0,WNW,15.0,19.6,0.00,,Overcast,290,2012-12-10 09:54:00
1:54 AM,25.0,24.1,96,29.84,10.0,WNW,5.8,-,0.00,,Overcast,300,2012-12-10 10:54:00
2:33 AM,28.4,26.6,93,29.84,10.0,Variable,4.6,-,N/A,,Overcast,0,2012-12-10 11:33:00
2:54 AM,28.9,27.0,92,29.84,10.0,Calm,Calm,-,N/A,,Overcast,0,2012-12-10 11:54:00
3:54 AM,27.0,26.1,96,29.83,10.0,West,6.9,-,N/A,,Overcast,280,2012-12-10 12:54:00
4:54 AM,37.0,34.0,89,29.82,7.0,East,13.8,21.9,0.00,Rain,Light Rain,100,2012-12-10 13:54:00
5:38 AM,37.4,33.8,87,29.80,7.0,ESE,15.0,24.2,0.00,Rain,Light Rain,110,2012-12-10 14:38:00
5:49 AM,37.4,33.8,87,29.80,7.0,East,11.5,24.2,0.00,Rain,Light Rain,100,2012-12-10 14:49:00
5:54 AM,37.0,34.0,89,29.81,7.0,East,9.2,18.4,0.00,Rain,Light Rain,100,2012-12-10 14:54:00
6:31 AM,37.4,35.6,93,29.79,7.0,East,10.4,23.0,0.00,Rain,Light Rain,100,2012-12-10 15:31:00
6:54 AM,37.0,35.1,93,29.79,6.0,ESE,11.5,25.3,0.01,Rain,Light Rain,110,2012-12-10 15:54:00
7:54 AM,37.0,35.1,93,29.77,9.0,East,13.8,21.9,0.00,Rain,Light Rain,100,2012-12-10 16:54:00
8:05 AM,37.4,35.6,93,29.75,9.0,ESE,13.8,23.0,0.00,Rain,Light Rain,110,2012-12-10 17:05:00
8:54 AM,37.0,35.1,93,29.74,9.0,ESE,9.2,16.1,0.00,Rain,Light Rain,110,2012-12-10 17:54:00
9:54 AM,37.0,35.1,93,29.71,10.0,East,9.2,20.7,0.00,Rain,Light Rain,90,2012-12-10 18:54:00
10:54 AM,37.0,34.0,89,29.70,10.0,ESE,9.2,18.4,0.01,,Overcast,110,2012-12-10 19:54:00
11:54 AM,37.0,35.1,93,29.66,10.0,East,8.1,-,N/A,,Overcast,100,2012-12-10 20:54:00
12:11 PM,37.4,35.6,93,29.63,10.0,East,9.2,16.1,N/A,,Overcast,100,2012-12-10 21:11:00
12:49 PM,37.4,33.8,87,29.59,10.0,ENE,9.2,-,N/A,,Overcast,70,2012-12-10 21:49:00
12:54 PM,37.0,34.0,89,29.60,10.0,ENE,11.5,-,N/A,,Overcast,70,2012-12-10 21:54:00
1:54 PM,37.0,34.0,89,29.54,9.0,ENE,9.2,-,0.00,Rain,Light Rain,60,2012-12-10 22:54:00
2:54 PM,30.9,30.0,96,29.50,6.0,WNW,5.8,-,0.02,Snow,Light Snow,290,2012-12-10 23:54:00
3:02 PM,30.2,30.2,100,29.49,2.5,WNW,5.8,-,0.01,Snow,Light Snow,290,2012-12-11 00:02:00
3:21 PM,30.2,28.4,93,29.48,1.8,WNW,6.9,-,0.03,Snow,Light Snow,290,2012-12-11 00:21:00
3:45 PM,28.4,28.4,100,29.46,1.2,WNW,9.2,-,0.04,Snow,Light Snow,290,2012-12-11 00:45:00
3:54 PM,28.9,28.0,96,29.47,1.5,WNW,9.2,-,0.05,Snow,Light Snow,290,2012-12-11 00:54:00
4:13 PM,28.4,28.4,100,29.45,2.0,WNW,10.4,-,0.00,Snow,Light Snow,290,2012-12-11 01:13:00
4:26 PM,28.4,28.4,100,29.45,1.2,WNW,9.2,-,0.01,Snow,Light Snow,290,2012-12-11 01:26:00
4:54 PM,28.9,28.0,96,29.44,1.2,WNW,10.4,-,0.02,Snow,Light Snow,290,2012-12-11 01:54:00
5:08 PM,28.4,28.4,100,29.42,2.0,WNW,10.4,-,0.01,Snow,Light Snow,290,2012-12-11 02:08:00
5:21 PM,28.4,28.4,100,29.41,1.5,WNW,11.5,-,0.01,Snow,Light Snow,290,2012-12-11 02:21:00
5:54 PM,30.9,28.9,92,29.41,1.8,WNW,9.2,-,0.02,Snow,Light Snow,300,2012-12-11 02:54:00
6:14 PM,32.0,30.2,93,29.40,1.5,WNW,11.5,-,0.00,Snow,Light Snow,300,2012-12-11 03:14:00
6:54 PM,30.9,30.0,96,29.40,1.2,WNW,12.7,-,0.01,Snow,Light Snow,300,2012-12-11 03:54:00
7:40 PM,32.0,30.2,93,29.39,1.0,NW,11.5,-,0.01,Snow,Light Snow,310,2012-12-11 04:40:00
7:54 PM,33.1,30.9,92,29.40,1.5,NW,13.8,-,0.01,Snow,Light Snow,310,2012-12-11 04:54:00
8:32 PM,33.8,30.2,87,29.39,2.0,NW,13.8,-,0.01,Snow,Light Snow,310,2012-12-11 05:32:00
8:49 PM,33.8,30.2,87,29.39,3.0,NW,12.7,-,0.01,Snow,Light Snow,310,2012-12-11 05:49:00
8:54 PM,33.1,30.9,92,29.40,3.0,NW,15.0,-,0.01,Snow,Light Snow,320,2012-12-11 05:54:00
9:12 PM,33.8,30.2,87,29.39,3.0,WNW,12.7,-,0.00,Snow,Light Snow,300,2012-12-11 06:12:00
9:31 PM,33.8,30.2,87,29.39,3.0,WNW,13.8,21.9,0.00,Snow,Light Snow,300,2012-12-11 06:31:00
9:38 PM,33.8,30.2,87,29.39,4.0,WNW,15.0,21.9,0.00,Snow,Light Snow,300,2012-12-11 06:38:00
9:45 PM,33.8,30.2,87,29.39,4.0,WNW,13.8,-,0.00,Snow,Light Snow,300,2012-12-11 06:45:00
9:54 PM,33.1,30.9,92,29.40,5.0,NW,15.0,-,0.00,Snow,Light Snow,310,2012-12-11 06:54:00
10:16 PM,33.8,32.0,93,29.40,9.0,NW,16.1,-,0.00,Snow,Light Snow,310,2012-12-11 07:16:00
10:54 PM,33.1,30.9,92,29.41,9.0,WNW,12.7,-,0.00,,Overcast,300,2012-12-11 07:54:00
11:05 PM,33.8,32.0,93,29.40,10.0,NW,12.7,19.6,N/A,,Overcast,310,2012-12-11 08:05:00
11:54 PM,35.1,32.0,89,29.42,10.0,WNW,12.7,-,N/A,,Overcast,300,2012-12-11 08:54:00